Regional Weather Roundup
Issued by NWS Boston, MA

Current Version | Previous Version | Text Only | Print | Product List | Glossary On
Versions: 1 2 3 4 5 6 7 8 9 10 11 12 13 14 15 16 17 18 19 20 21 22 23 24 25 26 27
000
ASUS41 KBOX 261110
RWRBOX

REGIONAL WEATHER ROUNDUP
NATIONAL WEATHER SERVICE TAUNTON MA
700 AM EDT SUN JUN 26 2016

NOTE:  "FAIR" INDICATES FEW OR NO CLOUDS BELOW 12,000 FEET WITH NO
SIGNIFICANT WEATHER AND/OR OBSTRUCTIONS TO VISIBILITY.  THE FOLLOWING
OBSERVATION LOCATIONS DO NOT REPORT PRESENT WEATHER...PROVINCETOWN...
SMITHFIELD...BLOCK ISLAND...KEENE...AND OXFORD.

MAZALL-261200-
EASTERN MASSACHUSETTS

CITY           SKY/WX    TMP DP  RH WIND       PRES   REMARKS
BOSTON         MOSUNNY   62  56  80 S3        30.22S
BEVERLY        MOSUNNY   62  58  86 CALM      30.21F
LAWRENCE       SUNNY     62  54  74 CALM      30.22F
BEDFORD        SUNNY     63  52  67 CALM      30.20S
BLUE HILL        N/A     63  46  54 W8        30.22S
NORWOOD        SUNNY     60  55  83 CALM      30.22S
MARSHFIELD     SUNNY     59  57  94 CALM      30.22S
PLYMOUTH       SUNNY     60  56  86 CALM      30.23F
TAUNTON        SUNNY     59  56  89 SE3       30.22S
NEW BEDFORD    SUNNY     58  54  86 CALM      30.22F
$$

MAZALL-261200-
CAPE COD AND THE ISLANDS

CITY           SKY/WX    TMP DP  RH WIND       PRES   REMARKS
FALMOUTH       SUNNY     59  55  88 CALM      30.24S
HYANNIS        SUNNY     62  56  80 CALM      30.22F
CHATHAM        SUNNY     63  57  81 CALM      30.25S
PROVINCETOWN   SUNNY     63  58  83 SE3       30.24S
NANTUCKET      SUNNY     61  55  81 NE7       30.24S
MARTHAS VNYRD  SUNNY     59  55  87 CALM      30.24S
$$

MAZALL-261200-
CENTRAL AND WESTERN MASSACHUSETTS

CITY           SKY/WX    TMP DP  RH WIND       PRES   REMARKS
WORCESTER      SUNNY     66  42  41 W15G21    30.22S
FITCHBURG      SUNNY     64  52  64 CALM      30.21S
ORANGE         SUNNY     59  52  77 CALM      30.22S
SPRINGFIELD    MOSUNNY   60  54  82 NE2       30.21R
WESTFIELD      MOSUNNY   60  53  77 CALM      30.21S
NORTH ADAMS    SUNNY     60  53  77 VRB3      30.22S
PITTSFIELD     SUNNY     58  55  90 CALM      30.22S
$$

RIZALL-261200-
RHODE ISLAND

CITY           SKY/WX    TMP DP  RH WIND       PRES   REMARKS
PROVIDENCE     MOSUNNY   61  54  77 CALM      30.23S
NEWPORT        SUNNY     62  58  86 CALM      30.22F
BLOCK ISLAND   SUNNY     63  59  87 CALM      30.24F
SMITHFIELD     SUNNY     57  55  94 CALM      30.22S
WESTERLY       SUNNY     60  54  80 CALM      30.23F
$$

CTZALL-261200-
CONNECTICUT

CITY           SKY/WX    TMP DP  RH WIND       PRES   REMARKS
BRADLEY INTL   PTSUNNY   62  54  74 S3        30.21S
HARTFORD       SUNNY     65  57  75 CALM      30.21F
BRIDGEPORT     SUNNY     66  57  72 CALM      30.21F
DANBURY        SUNNY     60  54  80 CALM      30.23F
GROTON         SUNNY     61  59  93 CALM      30.22S
NEW HAVEN      SUNNY     63  59  87 CALM      30.21F
CHESTER        FAIR      63  55  77 CALM      30.22F
MERIDEN        SUNNY     60  55  83 CALM      30.22S
WILLIMANTIC    SUNNY     59  52  77 CALM      30.23S
OXFORD         MOSUNNY   63  54  72 CALM      30.24F
$$

MEZ002-015-021-024-NHZ003-005-008-011-012-014-VTZ005-008-261200-
NORTHERN NEW ENGLAND

CITY           SKY/WX    TMP DP  RH WIND       PRES   REMARKS
PORTLAND ME    MOSUNNY   60  55  83 CALM      30.21S
BANGOR ME      MOSUNNY   63  48  58 S3        30.22S
CONCORD NH     SUNNY     59  49  69 CALM      30.21S
MANCHESTER NH  SUNNY     61  50  67 N3        30.20R
NASHUA NH      SUNNY     58  51  78 CALM      30.22R
PORTSMOUTH NH  MOSUNNY   60  53  77 SW2       30.20S
JAFFREY NH     SUNNY     59  52  77 CALM      30.23R
KEENE NH       SUNNY     57  52  82 CALM      30.23S
BURLINGTON VT  FAIR      71  55  56 S6        30.17R
MT. WASHINGTON MOSUNNY   52  43  71 E3          N/A
$$

NYZ052-076-261200-
EASTERN NEW YORK

CITY           SKY/WX    TMP DP  RH WIND       PRES   REMARKS
ALBANY         MOSUNNY   67  51  56 S7        30.19S
NEW YORK CITY  MOSUNNY   71  58  63 VRB3      30.21S
$$

ANZALL-261200-
MARINE OBSERVATIONS

STATION/POSITION TIME  TEMP    WIND        PRES    VSBY  WAVE
                       AIR SEA DIR/SP/G                  HT/PER
                 (UTC) (F)     (DEG/KT/KT) (MB)    (MI)  (FT/S)
BOSTON BUOY      1050   62 63  180/  6/  6 1023.1F         1/ 8
BUZZARDS BAY     1000   63     340/  3/  3 1024.3F
NANTUCKET SOUND  1050   65 66   30/  6/  8 1023.6F         1
MASS BAY-STELLWA 1004   61 62                N/A    1 7/8  1/ 8
ISLE OF SHOALS   1100   61     190/  7/  7 1022.9F
S OF BLOCK IS    1025      64                N/A           2/ 8
$$

......................KEY.........................
  SKY/WX - SKY CONDITION/PRESENT WEATHER
  TMP    - TEMPERATURE IN FAHRENHEIT
  DWPT   - DEWPOINT IN FAHRENHEIT
  RH     - RELATIVE HUMIDITY IN PERCENT
  WIND   - DIRECTION AND SPEED IN MPH
  PRES   - MEAN SEA LEVEL PRESSURE IN INCHES OF HG
  WCI    - WIND CHILL INDEX
  VSB    - VISIBILITY IN MILES
  HX     - HEAT INDEX
  TC     - TEMPERATURE IN CELSIUS
  VRB    - VARIABLE WIND DIRECTION
  N/A    - NOT AVAILABLE




USA.gov is the U.S. government's official web portal to all federal, state and local government web resources and services.